Eagle River, WI

5:13 AM CST on February 21, 2017 (GMT -0600)
Eagle River Union

Weather History for KEGV - April, 2013

Change the Weather History Date:

Monday, April 1, 2013

  Actual Average Record
Temperature  
Mean Temperature 20 °F -  
Max Temperature 26 °F 42 °F 58 °F (2015)
Min Temperature 14 °F 23 °F 6 °F (1999)
Degree Days  
Heating Degree Days 44    
Moisture  
Dew Point 8 °F    
Average Humidity 60    
Maximum Humidity 93    
Minimum Humidity 34    
Precipitation  
Precipitation 0.00 in - - ()
Sea Level Pressure  
Sea Level Pressure 29.98 in    
Wind  
Wind Speed 9 mph (NW)    
Max Wind Speed 22 mph    
Max Gust Speed 29 mph    
Visibility 9 miles    
Events Snow    
Averages and records for this station are not official NWS values.
T = Trace of Precipitation, MM = Missing Value Source: NWS Daily Summary

Daily Weather History Graph

Daily Weather History Graph

Search for Another Location

Airport or City:

Trip Planner

Search our weather history database for the weather conditions in past years. The results will help you decide how hot, cold, wet, or windy it might be!

Date:

Astronomy

Apr. 01, 2013 Rise Set
Actual Time 6:36 AM CDT 7:25 PM CDT
Civil Twilight 6:06 AM CDT 7:56 PM CDT
Nautical Twilight 5:30 AM CDT 8:32 PM CDT
Astronomical Twilight 4:52 AM CDT 9:10 PM CDT
Moon 12:47 AM CDT (4/1) 10:09 AM CDT (4/1)
Length of Visible Light 13h 49m
Length of Day
12h 49m
Waning Gibbous, 67% of the Moon is Illuminated
Apr 1
Waning Gibbous
Apr 2
Last Quarter
Apr 10
New
Apr 18
First Quarter
Apr 25
Full

Hourly Weather History & Observations

Time (CDT) Temp. Windchill Dew Point Humidity Pressure Visibility Wind Dir Wind Speed Gust Speed Precip Events Conditions
12:15 AM 19.4 °F 12.8 °F 17.6 °F 93% 29.87 in 10.0 mi NNW 4.6 mph - N/A   Overcast
12:35 AM 19.4 °F 10.4 °F 15.8 °F 86% 29.88 in 7.0 mi NNW 6.9 mph - N/A Snow Light Snow
12:55 AM 17.6 °F 9.3 °F 14.0 °F 86% 29.88 in 10.0 mi NW 5.8 mph - N/A   Mostly Cloudy
1:15 AM 19.4 °F 10.4 °F 12.2 °F 74% 29.88 in 10.0 mi NW 6.9 mph - N/A   Scattered Clouds
1:35 AM 17.6 °F 9.3 °F 10.4 °F 73% 29.89 in 10.0 mi NNW 5.8 mph - N/A   Clear
1:55 AM 17.6 °F 12.3 °F 10.4 °F 73% 29.89 in 10.0 mi NW 3.5 mph - N/A   Clear
2:15 AM 17.6 °F 10.7 °F 10.4 °F 73% 29.90 in 10.0 mi NW 4.6 mph - N/A   Mostly Cloudy
2:35 AM 17.6 °F 12.3 °F 12.2 °F 79% 29.90 in 10.0 mi North 3.5 mph - N/A   Overcast
2:55 AM 19.4 °F 10.4 °F 14.0 °F 80% 29.90 in 3.0 mi NW 6.9 mph - N/A Snow Light Snow
3:15 AM 19.4 °F 9.5 °F 14.0 °F 80% 29.91 in 1.5 mi NW 8.1 mph 16.1 mph N/A Snow Light Snow
3:35 AM 19.4 °F 9.5 °F 14.0 °F 80% 29.91 in 10.0 mi NW 8.1 mph - N/A   Overcast
3:55 AM 19.4 °F 8.6 °F 12.2 °F 74% 29.91 in 10.0 mi WNW 9.2 mph - N/A   Overcast
4:15 AM 19.4 °F 8.6 °F 12.2 °F 74% 29.92 in 10.0 mi WNW 9.2 mph - N/A   Overcast
4:35 AM 19.4 °F 8.6 °F 12.2 °F 74% 29.92 in 10.0 mi WNW 9.2 mph - N/A   Overcast
4:55 AM 19.4 °F 8.6 °F 12.2 °F 74% 29.92 in 10.0 mi WNW 9.2 mph - N/A   Overcast
5:15 AM 19.4 °F 10.4 °F 12.2 °F 74% 29.93 in 10.0 mi NW 6.9 mph - N/A   Overcast
5:35 AM 17.6 °F 6.4 °F 12.2 °F 79% 29.93 in 10.0 mi NW 9.2 mph - N/A   Overcast
5:55 AM 17.6 °F 6.4 °F 12.2 °F 79% 29.94 in 10.0 mi NW 9.2 mph - N/A   Overcast
6:15 AM 17.6 °F 5.0 °F 12.2 °F 79% 29.94 in 10.0 mi NW 11.5 mph - N/A   Overcast
6:35 AM 17.6 °F 6.4 °F 12.2 °F 79% 29.95 in 10.0 mi NW 9.2 mph - N/A   Overcast
6:55 AM 19.4 °F 10.4 °F 12.2 °F 74% 29.96 in 10.0 mi WNW 6.9 mph - N/A Snow Light Snow
7:15 AM 19.4 °F 8.6 °F 12.2 °F 74% 29.96 in 5.0 mi WNW 9.2 mph - N/A Snow Light Snow
7:35 AM 19.4 °F 7.9 °F 12.2 °F 74% 29.96 in 5.0 mi NW 10.4 mph - N/A Snow Light Snow
7:55 AM 19.4 °F 9.5 °F 12.2 °F 74% 29.96 in 4.0 mi NW 8.1 mph - N/A Snow Light Snow
8:15 AM 19.4 °F 6.6 °F 12.2 °F 74% 29.97 in 3.0 mi NW 12.7 mph 17.3 mph N/A Snow Light Snow
8:35 AM 19.4 °F 6.0 °F 12.2 °F 74% 29.98 in 3.0 mi NW 13.8 mph - N/A Snow Light Snow
8:55 AM 19.4 °F 7.9 °F 12.2 °F 74% 29.98 in 2.0 mi NW 10.4 mph 21.9 mph N/A Snow Light Snow
9:15 AM 19.4 °F 6.6 °F 12.2 °F 74% 29.98 in 5.0 mi WNW 12.7 mph 18.4 mph N/A Snow Light Snow
9:35 AM 21.2 °F 7.8 °F 10.4 °F 63% 29.99 in 5.0 mi NW 15.0 mph 25.3 mph N/A Snow Light Snow
9:55 AM 21.2 °F 9.5 °F 10.4 °F 63% 29.99 in 10.0 mi NW 11.5 mph 20.7 mph N/A Snow Light Snow
10:15 AM 21.2 °F 8.9 °F 10.4 °F 63% 29.99 in 4.0 mi NW 12.7 mph 18.4 mph N/A Snow Light Snow
10:35 AM 23.0 °F 10.1 °F 8.6 °F 54% 29.99 in 10.0 mi NW 15.0 mph 19.6 mph N/A   Overcast
10:55 AM 23.0 °F 8.3 °F 10.4 °F 59% 30.00 in 10.0 mi NW 19.6 mph 26.5 mph N/A   Overcast
11:15 AM 23.0 °F 10.1 °F 8.6 °F 54% 30.00 in 10.0 mi NNW 15.0 mph 23.0 mph N/A   Mostly Cloudy
11:35 AM 23.0 °F 10.1 °F 10.4 °F 59% 30.01 in 3.0 mi WNW 15.0 mph 24.2 mph N/A   Haze
11:55 AM 23.0 °F 9.2 °F 10.4 °F 59% 30.01 in 7.0 mi WNW 17.3 mph 25.3 mph N/A Snow Light Snow
12:15 PM 24.8 °F 10.3 °F 8.6 °F 50% 30.01 in 10.0 mi NW 20.7 mph 27.6 mph N/A   Overcast
12:35 PM 23.0 °F 10.1 °F 8.6 °F 54% 30.01 in 7.0 mi NW 15.0 mph 28.8 mph N/A   Mostly Cloudy
12:55 PM 23.0 °F 8.7 °F 6.8 °F 50% 30.01 in 10.0 mi NW 18.4 mph 27.6 mph N/A   Mostly Cloudy
1:15 PM 24.8 °F 11.9 °F 8.6 °F 50% 30.01 in 7.0 mi NW 16.1 mph 25.3 mph N/A   Mostly Cloudy
1:35 PM 24.8 °F 10.0 °F 5.0 °F 43% 30.01 in 10.0 mi NNW 21.9 mph 27.6 mph N/A   Mostly Cloudy
1:55 PM 26.6 °F 14.3 °F 5.0 °F 40% 30.01 in 10.0 mi WNW 16.1 mph 25.3 mph N/A   Overcast
2:15 PM 26.6 °F 13.4 °F 6.8 °F 43% 30.01 in 10.0 mi NW 18.4 mph 25.3 mph N/A   Mostly Cloudy
2:35 PM 26.6 °F 14.3 °F 6.8 °F 43% 30.01 in 10.0 mi NW 16.1 mph 24.2 mph N/A   Mostly Cloudy
2:55 PM 26.6 °F 13.8 °F 5.0 °F 40% 30.02 in 10.0 mi WNW 17.3 mph 21.9 mph N/A   Scattered Clouds
3:15 PM 26.6 °F 15.7 °F 5.0 °F 40% 30.02 in 10.0 mi NW 12.7 mph 19.6 mph N/A   Scattered Clouds
3:35 PM 26.6 °F 13.1 °F 5.0 °F 40% 30.02 in 10.0 mi NW 19.6 mph 26.5 mph N/A   Scattered Clouds
3:55 PM 26.6 °F 14.3 °F 5.0 °F 40% 30.02 in 10.0 mi NNW 16.1 mph 20.7 mph N/A   Scattered Clouds
4:15 PM 26.6 °F 16.8 °F 5.0 °F 40% 30.02 in 10.0 mi NW 10.4 mph 21.9 mph N/A   Scattered Clouds
4:35 PM 26.6 °F 13.4 °F 1.4 °F 34% 30.02 in 10.0 mi WNW 18.4 mph 24.2 mph N/A   Scattered Clouds
4:55 PM 26.6 °F 13.8 °F 3.2 °F 37% 30.02 in 10.0 mi WNW 17.3 mph 26.5 mph N/A   Scattered Clouds
5:15 PM 26.6 °F 14.7 °F 3.2 °F 37% 30.02 in 10.0 mi WNW 15.0 mph 26.5 mph N/A   Scattered Clouds
5:35 PM 26.6 °F 13.4 °F 3.2 °F 37% 30.03 in 10.0 mi NW 18.4 mph 23.0 mph N/A   Clear
5:55 PM 26.6 °F 16.2 °F 3.2 °F 37% 30.03 in 10.0 mi NW 11.5 mph - N/A   Scattered Clouds
6:15 PM 26.6 °F 17.5 °F 3.2 °F 37% 30.03 in 10.0 mi NW 9.2 mph 12.7 mph N/A   Mostly Cloudy
6:35 PM 26.6 °F 14.7 °F 3.2 °F 37% 30.03 in 10.0 mi NW 15.0 mph 24.2 mph N/A   Scattered Clouds
6:55 PM 26.6 °F 18.2 °F 3.2 °F 37% 30.03 in 10.0 mi WNW 8.1 mph 17.3 mph N/A   Scattered Clouds
7:15 PM 26.6 °F 18.2 °F 3.2 °F 37% 30.03 in 10.0 mi WNW 8.1 mph - N/A   Clear
7:35 PM 24.8 °F 17.9 °F 3.2 °F 40% 30.03 in 10.0 mi WNW 5.8 mph - N/A   Scattered Clouds
7:55 PM 24.8 °F 19.1 °F 3.2 °F 40% 30.03 in 10.0 mi WNW 4.6 mph - N/A   Scattered Clouds
8:15 PM 23.0 °F 15.8 °F 3.2 °F 43% 30.03 in 10.0 mi West 5.8 mph - N/A   Scattered Clouds
8:35 PM 19.4 °F 14.3 °F 5.0 °F 54% 30.03 in 10.0 mi West 3.5 mph - N/A   Clear
8:55 PM 17.6 °F 10.7 °F 5.0 °F 58% 30.03 in 10.0 mi West 4.6 mph - N/A   Clear
9:15 PM 17.6 °F 10.7 °F 3.2 °F 53% 30.03 in 10.0 mi West 4.6 mph - N/A   Clear
9:35 PM 17.6 °F 10.7 °F 5.0 °F 58% 30.04 in 10.0 mi WSW 4.6 mph - N/A   Clear
9:55 PM 15.8 °F 10.2 °F 5.0 °F 62% 30.04 in 10.0 mi West 3.5 mph - N/A   Clear
10:15 PM 15.8 °F 10.2 °F 6.8 °F 68% 30.04 in 10.0 mi West 3.5 mph - N/A   Clear
10:35 PM 19.4 °F 11.5 °F 5.0 °F 54% 30.04 in 10.0 mi West 5.8 mph - N/A   Clear
10:55 PM 19.4 °F 11.5 °F 5.0 °F 54% 30.04 in 10.0 mi West 5.8 mph - N/A   Clear
11:15 PM 19.4 °F 12.8 °F 5.0 °F 54% 30.04 in 10.0 mi West 4.6 mph - N/A   Clear
11:35 PM 17.6 °F 10.7 °F 3.2 °F 53% 30.04 in 10.0 mi West 4.6 mph - N/A   Clear
11:55 PM 14.0 °F 5.1 °F 3.2 °F 62% 30.04 in 10.0 mi West 5.8 mph - N/A   Clear